Location: Beacon Field Observatory
(38.7700°N, 77.0829°W)
Time: 03:02:56
(UTC-05:00)

UKube-1 - Pass Details

Date: 13 December 2019
Orbit: 613 x 619 km, 98.5° (Epoch: 27 January)

Event Time Altitude Azimuth Distance (km) Brightness Sun altitude
Rises 05:10:10 0° 179° (S) 2,865 ? -24.1°
Reaches altitude 10° 05:12:24 10° 186° (S) 1,965 ? -23.7°
Enters shadow 05:14:23 25° 200° (SSW) 1,234 ? -23.3°
